FLOCK 3P-59 (42022 NORAD) Tracking and Keplerian Element Data

This shows tracking and keplerian element data for the satellite.

Feedback or suggestion? Click here.




ElementValue
Catalog42022
NameFLOCK 3P-59
Epoch Orbit5427
Epoch Day45.43125234
Epoch Year2018
RAAN110.9799
Inclination97.4661
Eccentricity0.0009507
Argument of Perigee72.2767
Mean Anonmoly287.9507
Mean Motion15.24035659
Decay Rate2.492E-05
L11 42022U 17008CC 18045.43125234 .00002492 00000-0 10566-3 0 9996
L22 42022 97.4661 110.9799 0009507 72.2767 287.9507 15.24035659 54279

Live tracking and technical data element details for FLOCK 3P-59 (NORAD 42022). FLOCK 3P-59 can be tracked NOW for your location showing map with azimuth and elevation plus other details from your city location.

Track the satellite on the map from your city or location and see movement details for azimuth, elevation, latitude, longitude, range, height, and movement on the map or in text.







IsCatalogInMostPopularTable: catalog: 42022, numindb: 128
Update: records affected: 1



GetName: 42022 FLOCK 3P-59

Hit Count: updated at: Wed, 14 Nov 2018 10:53:10 GMT